Skip Page Navigation
NASA JPL Caltech
NASA Logo - Jet Propulsion Laboratory + View the NASA Portal
+ Center for Near-Earth Object Studies
JPL Home Earth Solar System Stars & Galaxies Technology
JPL Solar System Dynamics
BODIES ORBITS EPHEMERIDES TOOLS PHYSICAL DATA DISCOVERY FAQ SITE MAP
JPL Small-Body Database Browser
Search: [ help ]  
74861 (1999 TW90)
Classification: Main-belt Asteroid          SPK-ID: 2074861
Ephemeris | Orbit Diagram | Orbital Elements | Mission Design | Physical Parameters | Discovery Circumstances | Close-Approach Data ]

[ show orbit diagram ]
Orbital Elements at Epoch 2459000.5 (2020-May-31.0) TDB
Reference: JPL 22 (heliocentric ecliptic J2000)
 Element Value Uncertainty (1-sigma)   Units 
e .1712546477426979 3.596e-08  
a 2.209595054128866 8.0275e-09 au
q 1.831191631480019 7.9509e-08 au
i 6.876326360072443 5.4056e-06 deg
node 63.2934184254735 3.4208e-05 deg
peri 219.5272660384217 3.8702e-05 deg
M 169.2751238195454 2.0955e-05 deg
tp 2458436.397401942608
(2018-Nov-13.89740194)
6.8187e-05 TDB
period 1199.68564026661
3.28
6.5377e-06
1.79e-08
d
yr
n .3000786105266677 1.6353e-09 deg/d
Q 2.587998476777712 9.4023e-09 au
  Orbit Determination Parameters
   # obs. used (total)      955  
   data-arc span      7710 days (21.11 yr)  
   first obs. used      1999-09-14  
   last obs. used      2020-10-23  
   planetary ephem.      DE431  
   SB-pert. ephem.      SB431-N16  
   condition code      0  
   norm. resid. RMS      .53087  
   source      ORB  
   producer      Otto Matic  
   solution date      2020-Nov-12 21:42:03  

Additional Information
 Earth MOID = .820887 au 
 Jupiter MOID = 2.5514 au 
 T_jup = 3.630 
[ show covariance matrix ]

Ephemeris | Orbit Diagram | Orbital Elements | Mission Design | Physical Parameters | Discovery Circumstances | Close-Approach Data ]

Physical Parameter Table
Parameter Symbol Value Units Sigma Reference Notes
absolute magnitude H 15.7   n/a MPO502609  

74861 (1999 TW90)          Discovered 1999-Oct-02 by LINEAR at Socorro
Reference: 20040415/Numbers.arcLast Updated: 2004-04-19

[ show close-approach data ]
Alternate Designations
 1999 TW90 = 2001 DL3 
Ephemeris | Orbit Diagram | Orbital Elements | Mission Design | Physical Parameters | Discovery Circumstances | Close-Approach Data ]
ABOUT SSD CREDITS/AWARDS PRIVACY/COPYRIGHT GLOSSARY LINKS
FirstGov 2020-Nov-28 00:49 UT
(server date/time)  
NASA Home Page
Site Manager:   Ryan S. Park
Webmaster  Alan B. Chamberlin